QPF
0.01 0.02 0.03 0.08 0.11 0.09 0.10 0.14 0.13 0.09 0.06 0.04 0.01 0.01 0.03 0.05 0.07 0.11 0.14 0.10 0.06 0.04 0.04 0.05 0.06 0.04 0.04 0.03 0.03 0.03 0.02 0.03 0.05 0.07 0.06 0.06 0.06 0.05 0.04 0.03 0.03 0.03 0.02 0.03 0.03 0.03 0.03 0.03 0.03
0.01 0.03 0.04 0.08 0.08 0.07 0.09 0.13 0.10 0.06 0.04 0.03 0.01 0.01 0.02 0.02 0.04 0.10 0.11 0.08 0.06 0.04 0.03 0.03 0.05 0.04 0.04 0.03 0.03 0.04 0.04 0.05 0.07 0.09 0.08 0.06 0.05 0.05 0.05 0.05 0.05 0.04 0.03 0.03 0.03 0.03 0.03 0.04 0.03
0.01 0.04 0.06 0.08 0.06 0.06 0.11 0.15 0.12 0.07 0.02 0.01 0.00 0.01 0.02 0.04 0.04 0.06 0.09 0.07 0.05 0.03 0.02 0.02 0.03 0.03 0.02 0.01 0.03 0.05 0.04 0.06 0.10 0.12 0.09 0.06 0.05 0.05 0.05 0.06 0.05 0.04 0.04 0.03 0.02 0.03 0.04 0.03 0.03
0.03 0.06 0.07 0.06 0.05 0.07 0.10 0.12 0.08 0.08 0.05 0.01 0.01 0.02 0.01 0.05 0.07 0.04 0.05 0.05 0.03 0.02 0.02 0.01 0.02 0.02 0.02 0.03 0.03 0.03 0.02 0.02 0.04 0.07 0.09 0.09 0.09 0.06 0.05 0.04 0.04 0.04 0.05 0.04 0.03 0.04 0.03 0.03 0.03
0.03 0.06 0.06 0.04 0.05 0.09 0.10 0.10 0.08 0.07 0.08 0.04 0.01 0.03 0.02 0.03 0.05 0.04 0.02 0.01 0.01 0.01 0.01 0.01 0.01 0.01 0.03 0.04 0.01 0.01 0.01 0.02 0.02 0.03 0.03 0.04 0.05 0.03 0.03 0.04 0.03 0.03 0.04 0.05 0.04 0.03 0.02 0.02 0.02
0.04 0.05 0.06 0.04 0.06 0.10 0.12 0.10 0.05 0.05 0.08 0.05 0.02 0.04 0.04 0.06 0.05 0.04 0.02 0.01 0.01 0.01 0.01 0.01 0.01 0.00 0.00 0.00 0.00 0.00 0.00 0.01 0.01 0.02 0.04 0.04 0.03 0.02 0.02 0.03 0.03 0.03 0.04 0.05 0.05 0.04 0.02 0.02 0.02
0.04 0.05 0.07 0.05 0.07 0.09 0.11 0.08 0.06 0.06 0.07 0.05 0.02 0.02 0.04 0.07 0.06 0.03 0.02 0.01 0.01 0.01 0.00 0.00 0.00 0.00 0.00 0.00 0.01 0.00 0.00 0.01 0.01 0.01 0.02 0.02 0.01 0.01 0.01 0.02 0.04 0.04 0.03 0.07 0.09 0.06 0.03 0.03 0.03
0.04 0.05 0.05 0.05 0.07 0.08 0.08 0.04 0.04 0.03 0.03 0.01 0.01 0.02 0.04 0.10 0.07 0.04 0.01 0.01 0.01 0.01 0.01 0.01 0.01 0.00 0.00 0.01 0.02 0.01 0.01 0.01 0.01 0.01 0.01 0.01 0.01 0.00 0.01 0.03 0.06 0.05 0.05 0.09 0.12 0.08 0.05 0.03 0.03
0.03 0.04 0.04 0.05 0.05 0.06 0.04 0.03 0.04 0.02 0.01 0.01 0.01 0.02 0.03 0.07 0.06 0.05 0.02 0.01 0.01 0.01 0.01 0.01 0.01 0.02 0.01 0.01 0.02 0.01 0.01 0.01 0.01 0.00 0.01 0.00 0.00 0.00 0.02 0.05 0.09 0.09 0.09 0.11 0.14 0.11 0.07 0.05 0.04
0.03 0.03 0.04 0.04 0.04 0.04 0.03 0.03 0.05 0.04 0.03 0.02 0.02 0.03 0.06 0.06 0.05 0.04 0.02 0.01 0.00 0.00 0.00 0.00 0.01 0.02 0.01 0.01 0.01 0.00 0.00 0.01 0.01 0.00 0.00 0.00 0.00 0.01 0.01 0.04 0.06 0.05 0.06 0.09 0.11 0.11 0.08 0.05 0.03
0.03 0.02 0.02 0.03 0.04 0.03 0.03 0.03 0.04 0.03 0.03 0.03 0.03 0.03 0.05 0.05 0.03 0.03 0.03 0.01 0.01 0.01 0.01 0.00 0.01 0.01 0.00 0.00 0.00 0.00 0.00 0.01 0.01 0.01 0.01 0.00 0.00 0.01 0.01 0.02 0.05 0.05 0.05 0.06 0.06 0.05 0.04 0.03 0.02
0.02 0.02 0.01 0.02 0.02 0.03 0.04 0.03 0.04 0.03 0.03 0.02 0.02 0.02 0.02 0.03 0.03 0.03 0.04 0.03 0.02 0.02 0.01 0.01 0.01 0.00 0.00 0.00 0.00 0.00 0.00 0.01 0.01 0.01 0.01 0.00 0.00 0.01 0.01 0.03 0.07 0.07 0.03 0.03 0.03 0.02 0.02 0.01 0.01
0.03 0.02 0.02 0.01 0.01 0.02 0.02 0.03 0.04 0.04 0.02 0.01 0.01 0.01 0.03 0.03 0.02 0.03 0.06 0.02 0.01 0.01 0.01 0.01 0.01 0.00 0.00 0.00 0.00 0.00 0.00 0.00 0.01 0.01 0.00 0.00 0.00 0.01 0.02 0.04 0.04 0.03 0.02 0.02 0.02 0.01 0.01 0.01 0.01
0.04 0.03 0.01 0.01 0.01 0.01 0.01 0.01 0.03 0.04 0.02 0.01 0.01 0.01 0.02 0.02 0.02 0.02 0.04 0.03 0.01 0.01 0.01 0.01 0.00 0.00 0.00 0.00 0.00 0.00 0.00 0.00 0.00 0.00 0.00 0.00 0.00 0.00 0.01 0.03 0.03 0.03 0.03 0.02 0.01 0.01 0.01 0.01 0.01
0.04 0.03 0.02 0.01 0.01 0.01 0.01 0.02 0.03 0.03 0.02 0.01 0.01 0.01 0.02 0.02 0.02 0.02 0.02 0.04 0.02 0.01 0.00 0.00 0.00 0.00 0.00 0.00 0.00 0.00 0.00 0.00 0.00 0.00 0.00 0.00 0.00 0.00 0.01 0.01 0.02 0.02 0.02 0.01 0.01 0.01 0.02 0.02 0.01
0.04 0.03 0.02 0.01 0.01 0.00 0.01 0.01 0.02 0.02 0.02 0.01 0.01 0.01 0.02 0.01 0.02 0.03 0.04 0.04 0.02 0.01 0.00 0.00 0.00 0.00 0.00 0.00 0.00 0.00 0.00 0.00 0.00 0.00 0.00 0.00 0.00 0.00 0.00 0.00 0.01 0.01 0.01 0.01 0.01 0.01 0.01 0.01 0.01
0.04 0.02 0.02 0.01 0.00 0.00 0.00 0.01 0.01 0.02 0.02 0.02 0.02 0.02 0.02 0.01 0.02 0.03 0.06 0.09 0.05 0.02 0.01 0.00 0.00 0.00 0.00 0.00 0.00 0.00 0.00 0.00 0.00 0.00 0.00 0.00 0.01 0.00 0.00 0.00 0.00 0.00 0.00 0.00 0.00 0.00 0.00 0.00 0.01
0.03 0.03 0.02 0.02 0.00 0.01 0.01 0.01 0.01 0.02 0.01 0.02 0.03 0.03 0.02 0.01 0.02 0.02 0.03 0.10 0.08 0.04 0.02 0.01 0.00 0.00 0.00 0.00 0.00 0.00 0.00 0.00 0.00 0.00 0.00 0.00 0.00 0.00 0.00 0.00 0.00 0.00 0.01 0.01 0.00 0.00 0.00 0.00 0.01
0.02 0.02 0.02 0.02 0.01 0.02 0.02 0.01 0.01 0.02 0.02 0.02 0.02 0.02 0.02 0.02 0.02 0.02 0.02 0.06 0.07 0.03 0.02 0.01 0.01 0.01 0.00 0.00 0.00 0.00 0.00 0.00 0.00 0.00 0.00 0.00 0.00 0.00 0.00 0.00 0.00 0.00 0.00 0.00 0.00 0.01 0.01 0.01 0.01
0.02 0.02 0.01 0.01 0.01 0.02 0.01 0.01 0.01 0.01 0.01 0.01 0.01 0.01 0.02 0.02 0.03 0.02 0.02 0.02 0.04 0.04 0.02 0.01 0.01 0.01 0.01 0.01 0.01 0.00 0.00 0.00 0.00 0.00 0.00 0.00 0.00 0.00 0.00 0.00 0.00 0.00 0.00 0.00 0.00 0.01 0.01 0.01 0.00
0.02 0.01 0.01 0.01 0.02 0.02 0.01 0.01 0.02 0.02 0.01 0.01 0.01 0.01 0.01 0.02 0.02 0.01 0.01 0.02 0.02 0.04 0.02 0.01 0.01 0.01 0.01 0.01 0.01 0.01 0.00 0.00 0.00 0.01 0.01 0.00 0.00 0.00 0.00 0.00 0.00 0.00 0.00 0.00 0.00 0.00 0.00 0.00 0.00
0.01 0.01 0.00 0.01 0.01 0.01 0.01 0.01 0.01 0.01 0.01 0.00 0.00 0.00 0.01 0.03 0.02 0.01 0.01 0.01 0.02 0.02 0.02 0.01 0.01 0.01 0.01 0.01 0.01 0.01 0.01 0.00 0.00 0.00 0.00 0.00 0.00 0.00 0.00 0.00 0.00 0.01 0.00 0.00 0.01 0.00 0.00 0.00 0.00
0.00 0.00 0.00 0.00 0.01 0.01 0.01 0.01 0.01 0.01 0.00 0.00 0.00 0.00 0.00 0.02 0.02 0.01 0.01 0.01 0.02 0.03 0.02 0.02 0.02 0.01 0.01 0.02 0.02 0.01 0.01 0.00 0.00 0.00 0.00 0.00 0.00 0.00 0.00 0.00 0.00 0.00 0.01 0.01 0.00 0.00 0.00 0.00 0.00
0.01 0.01 0.01 0.01 0.01 0.02 0.01 0.01 0.01 0.00 0.00 0.00 0.00 0.00 0.00 0.01 0.02 0.01 0.00 0.01 0.01 0.02 0.03 0.03 0.02 0.02 0.02 0.02 0.02 0.02 0.01 0.00 0.00 0.00 0.00 0.00 0.01 0.01 0.00 0.00 0.00 0.00 0.01 0.01 0.01 0.00 0.00 0.00 0.00
0.01 0.01 0.02 0.02 0.02 0.01 0.01 0.01 0.00 0.00 0.00 0.00 0.00 0.00 0.00 0.00 0.02 0.01 0.00 0.01 0.01 0.01 0.02 0.03 0.03 0.02 0.02 0.03 0.03 0.03 0.02 0.01 0.01 0.01 0.01 0.01 0.01 0.01 0.01 0.00 0.00 0.00 0.01 0.01 0.01 0.01 0.01 0.01 0.01
0.01 0.02 0.04 0.03 0.02 0.01 0.01 0.02 0.01 0.00 0.00 0.00 0.00 0.00 0.00 0.00 0.01 0.02 0.01 0.00 0.00 0.01 0.01 0.02 0.03 0.02 0.02 0.03 0.03 0.03 0.03 0.02 0.01 0.02 0.02 0.03 0.02 0.02 0.01 0.01 0.00 0.00 0.00 0.00 0.00 0.00 0.01 0.01 0.01
0.01 0.01 0.01 0.01 0.01 0.01 0.01 0.01 0.01 0.01 0.00 0.00 0.01 0.01 0.01 0.01 0.01 0.02 0.03 0.01 0.01 0.00 0.01 0.01 0.01 0.01 0.02 0.02 0.03 0.02 0.02 0.02 0.02 0.03 0.04 0.04 0.04 0.03 0.01 0.01 0.00 0.00 0.00 0.00 0.00 0.00 0.01 0.01 0.01
0.01 0.01 0.01 0.01 0.03 0.03 0.02 0.02 0.03 0.01 0.00 0.01 0.01 0.01 0.01 0.01 0.01 0.01 0.02 0.03 0.02 0.02 0.01 0.01 0.02 0.02 0.02 0.03 0.02 0.02 0.03 0.02 0.03 0.03 0.04 0.04 0.03 0.02 0.01 0.01 0.00 0.00 0.00 0.00 0.00 0.00 0.01 0.02 0.01
0.01 0.01 0.01 0.02 0.02 0.03 0.03 0.02 0.02 0.01 0.00 0.01 0.01 0.01 0.01 0.00 0.01 0.01 0.01 0.02 0.03 0.02 0.02 0.01 0.01 0.01 0.02 0.02 0.02 0.02 0.02 0.03 0.03 0.04 0.04 0.04 0.02 0.01 0.02 0.01 0.01 0.01 0.00 0.01 0.01 0.01 0.02 0.02 0.02
0.01 0.01 0.02 0.03 0.03 0.02 0.02 0.02 0.01 0.01 0.00 0.00 0.01 0.01 0.01 0.00 0.00 0.01 0.01 0.02 0.02 0.01 0.01 0.01 0.01 0.01 0.01 0.01 0.02 0.02 0.03 0.03 0.03 0.03 0.04 0.04 0.03 0.02 0.01 0.01 0.01 0.01 0.01 0.01 0.01 0.01 0.02 0.02 0.01
MSLP
1012.07 1012.89 1013.89 1014.96 1016.00 1016.88 1017.54 1017.93 1018.06 1017.99 1017.83 1017.69 1017.65 1017.75 1018.00 1018.35 1018.69 1018.93 1018.98 1018.80 1018.40 1017.84 1017.20 1016.60 1016.11 1015.79 1015.63 1015.62 1015.67 1015.74 1015.77 1015.73 1015.61 1015.47 1015.32 1015.21 1015.16 1015.16 1015.19 1015.21 1015.21 1015.15 1015.04 1014.88 1014.70 1014.53 1014.37 1014.23 1014.09
1012.64 1013.61 1014.70 1015.79 1016.77 1017.54 1018.04 1018.26 1018.24 1018.06 1017.84 1017.68 1017.65 1017.79 1018.07 1018.42 1018.75 1018.97 1018.99 1018.78 1018.38 1017.83 1017.23 1016.67 1016.24 1015.96 1015.83 1015.82 1015.88 1015.93 1015.95 1015.90 1015.79 1015.65 1015.53 1015.43 1015.38 1015.36 1015.37 1015.36 1015.32 1015.23 1015.10 1014.94 1014.77 1014.61 1014.48 1014.36 1014.25
1013.30 1014.38 1015.50 1016.55 1017.42 1018.03 1018.36 1018.42 1018.27 1018.01 1017.76 1017.60 1017.59 1017.76 1018.06 1018.41 1018.72 1018.90 1018.89 1018.68 1018.28 1017.76 1017.22 1016.73 1016.35 1016.12 1016.02 1016.02 1016.05 1016.09 1016.08 1016.01 1015.90 1015.78 1015.66 1015.58 1015.53 1015.51 1015.49 1015.45 1015.38 1015.27 1015.13 1014.97 1014.83 1014.70 1014.60 1014.52 1014.45
1014.03 1015.14 1016.22 1017.18 1017.90 1018.35 1018.51 1018.43 1018.19 1017.88 1017.62 1017.49 1017.52 1017.72 1018.03 1018.37 1018.65 1018.79 1018.75 1018.53 1018.15 1017.68 1017.20 1016.79 1016.48 1016.29 1016.22 1016.20 1016.21 1016.21 1016.16 1016.08 1015.96 1015.84 1015.74 1015.66 1015.62 1015.60 1015.57 1015.51 1015.42 1015.30 1015.16 1015.02 1014.90 1014.81 1014.75 1014.72 1014.68
1014.76 1015.84 1016.84 1017.65 1018.21 1018.49 1018.51 1018.33 1018.03 1017.73 1017.50 1017.42 1017.50 1017.73 1018.03 1018.35 1018.59 1018.68 1018.61 1018.38 1018.03 1017.62 1017.22 1016.88 1016.64 1016.49 1016.42 1016.39 1016.36 1016.31 1016.22 1016.10 1015.97 1015.85 1015.76 1015.70 1015.67 1015.65 1015.61 1015.55 1015.45 1015.33 1015.19 1015.08 1014.99 1014.94 1014.92 1014.93 1014.94
1015.46 1016.45 1017.31 1017.95 1018.35 1018.48 1018.40 1018.16 1017.87 1017.60 1017.45 1017.44 1017.57 1017.82 1018.12 1018.39 1018.58 1018.62 1018.51 1018.27 1017.95 1017.59 1017.26 1016.99 1016.81 1016.70 1016.63 1016.58 1016.51 1016.40 1016.27 1016.12 1015.97 1015.85 1015.77 1015.73 1015.71 1015.69 1015.65 1015.58 1015.48 1015.36 1015.24 1015.15 1015.09 1015.08 1015.10 1015.15 1015.19
1016.08 1016.94 1017.64 1018.12 1018.36 1018.38 1018.23 1017.99 1017.74 1017.55 1017.48 1017.55 1017.74 1018.01 1018.28 1018.51 1018.62 1018.60 1018.45 1018.21 1017.90 1017.60 1017.33 1017.12 1016.99 1016.90 1016.83 1016.75 1016.64 1016.49 1016.32 1016.15 1015.99 1015.88 1015.81 1015.78 1015.77 1015.75 1015.71 1015.64 1015.53 1015.42 1015.31 1015.23 1015.20 1015.21 1015.27 1015.35 1015.42
1016.61 1017.34 1017.88 1018.20 1018.31 1018.25 1018.07 1017.86 1017.67 1017.58 1017.61 1017.76 1017.99 1018.25 1018.50 1018.66 1018.70 1018.62 1018.43 1018.17 1017.88 1017.62 1017.40 1017.25 1017.15 1017.08 1017.00 1016.90 1016.76 1016.59 1016.39 1016.21 1016.05 1015.95 1015.89 1015.86 1015.86 1015.84 1015.80 1015.72 1015.61 1015.49 1015.39 1015.33 1015.32 1015.36 1015.45 1015.55 1015.64
1017.07 1017.66 1018.05 1018.24 1018.25 1018.14 1017.96 1017.79 1017.69 1017.68 1017.79 1018.00 1018.25 1018.50 1018.69 1018.79 1018.77 1018.63 1018.41 1018.14 1017.87 1017.64 1017.47 1017.36 1017.28 1017.23 1017.15 1017.04 1016.89 1016.70 1016.50 1016.32 1016.17 1016.07 1016.02 1016.01 1016.00 1015.97 1015.92 1015.83 1015.71 1015.60 1015.51 1015.47 1015.49 1015.56 1015.67 1015.79 1015.91
1017.46 1017.93 1018.20 1018.29 1018.24 1018.10 1017.94 1017.82 1017.77 1017.84 1017.99 1018.22 1018.47 1018.68 1018.82 1018.86 1018.78 1018.60 1018.36 1018.10 1017.86 1017.66 1017.53 1017.45 1017.40 1017.35 1017.28 1017.17 1017.02 1016.84 1016.65 1016.48 1016.35 1016.26 1016.22 1016.19 1016.18 1016.14 1016.07 1015.97 1015.86 1015.76 1015.70 1015.68 1015.73 1015.84 1015.98 1016.14 1016.27
1017.82 1018.20 1018.39 1018.41 1018.31 1018.17 1018.02 1017.93 1017.92 1018.01 1018.18 1018.39 1018.60 1018.76 1018.85 1018.83 1018.72 1018.52 1018.29 1018.05 1017.84 1017.69 1017.59 1017.54 1017.51 1017.48 1017.42 1017.33 1017.19 1017.02 1016.85 1016.70 1016.58 1016.50 1016.45 1016.42 1016.38 1016.33 1016.25 1016.16 1016.07 1016.00 1015.97 1016.00 1016.10 1016.25 1016.44 1016.63 1016.79
1018.17 1018.49 1018.62 1018.61 1018.49 1018.34 1018.21 1018.13 1018.12 1018.20 1018.33 1018.49 1018.64 1018.74 1018.77 1018.72 1018.59 1018.41 1018.20 1018.01 1017.85 1017.74 1017.68 1017.66 1017.66 1017.64 1017.60 1017.52 1017.40 1017.26 1017.11 1016.97 1016.85 1016.76 1016.70 1016.65 1016.60 1016.53 1016.46 1016.39 1016.33 1016.31 1016.34 1016.44 1016.61 1016.82 1017.05 1017.28 1017.47
1018.52 1018.81 1018.91 1018.88 1018.77 1018.62 1018.49 1018.40 1018.37 1018.40 1018.46 1018.54 1018.61 1018.65 1018.63 1018.56 1018.44 1018.29 1018.14 1018.00 1017.90 1017.84 1017.83 1017.83 1017.85 1017.85 1017.83 1017.76 1017.67 1017.54 1017.41 1017.27 1017.15 1017.04 1016.95 1016.87 1016.80 1016.74 1016.68 1016.65 1016.65 1016.70 1016.82 1017.00 1017.24 1017.52 1017.81 1018.08 1018.30
1018.89 1019.15 1019.25 1019.23 1019.12 1018.99 1018.86 1018.75 1018.68 1018.63 1018.61 1018.60 1018.59 1018.55 1018.50 1018.43 1018.34 1018.24 1018.15 1018.08 1018.03 1018.02 1018.03 1018.07 1018.10 1018.12 1018.11 1018.07 1018.00 1017.89 1017.76 1017.62 1017.47 1017.33 1017.20 1017.09 1017.00 1016.93 1016.90 1016.92 1017.00 1017.15 1017.36 1017.64 1017.96 1018.31 1018.65 1018.95 1019.19
1019.25 1019.50 1019.60 1019.59 1019.52 1019.41 1019.29 1019.16 1019.03 1018.92 1018.81 1018.71 1018.62 1018.54 1018.46 1018.40 1018.34 1018.29 1018.26 1018.25 1018.25 1018.27 1018.30 1018.34 1018.39 1018.42 1018.44 1018.42 1018.37 1018.28 1018.15 1017.99 1017.81 1017.63 1017.45 1017.30 1017.18 1017.12 1017.12 1017.21 1017.37 1017.62 1017.93 1018.30 1018.69 1019.10 1019.48 1019.80 1020.06
1019.59 1019.81 1019.93 1019.95 1019.92 1019.85 1019.74 1019.60 1019.44 1019.27 1019.09 1018.92 1018.76 1018.64 1018.55 1018.50 1018.48 1018.48 1018.49 1018.51 1018.54 1018.56 1018.60 1018.64 1018.69 1018.74 1018.77 1018.79 1018.76 1018.69 1018.57 1018.39 1018.18 1017.95 1017.72 1017.52 1017.38 1017.32 1017.36 1017.50 1017.74 1018.07 1018.47 1018.91 1019.37 1019.81 1020.21 1020.54 1020.81
1019.86 1020.07 1020.20 1020.27 1020.29 1020.27 1020.19 1020.07 1019.89 1019.67 1019.44 1019.21 1019.02 1018.87 1018.78 1018.75 1018.75 1018.78 1018.81 1018.84 1018.86 1018.87 1018.89 1018.92 1018.96 1019.02 1019.09 1019.14 1019.15 1019.11 1019.00 1018.82 1018.58 1018.30 1018.02 1017.78 1017.62 1017.55 1017.61 1017.80 1018.10 1018.50 1018.96 1019.44 1019.92 1020.38 1020.78 1021.11 1021.38
1020.05 1020.24 1020.40 1020.52 1020.61 1020.65 1020.62 1020.51 1020.33 1020.08 1019.81 1019.56 1019.34 1019.19 1019.10 1019.09 1019.11 1019.15 1019.18 1019.19 1019.18 1019.16 1019.14 1019.14 1019.18 1019.25 1019.35 1019.45 1019.52 1019.52 1019.44 1019.27 1019.02 1018.71 1018.39 1018.11 1017.92 1017.85 1017.91 1018.12 1018.46 1018.88 1019.36 1019.86 1020.34 1020.78 1021.16 1021.49 1021.75
1020.13 1020.33 1020.53 1020.72 1020.88 1020.98 1021.00 1020.91 1020.72 1020.45 1020.16 1019.87 1019.65 1019.49 1019.43 1019.43 1019.47 1019.51 1019.53 1019.51 1019.46 1019.38 1019.31 1019.28 1019.31 1019.40 1019.54 1019.70 1019.84 1019.91 1019.88 1019.74 1019.50 1019.18 1018.84 1018.54 1018.32 1018.22 1018.28 1018.48 1018.81 1019.24 1019.70 1020.18 1020.63 1021.04 1021.39 1021.69 1021.96
1020.12 1020.35 1020.61 1020.88 1021.12 1021.27 1021.31 1021.23 1021.02 1020.72 1020.39 1020.08 1019.85 1019.70 1019.66 1019.68 1019.74 1019.80 1019.81 1019.76 1019.66 1019.53 1019.42 1019.36 1019.38 1019.49 1019.68 1019.90 1020.12 1020.27 1020.31 1020.22 1020.01 1019.71 1019.37 1019.05 1018.81 1018.69 1018.72 1018.90 1019.20 1019.58 1020.00 1020.43 1020.83 1021.18 1021.50 1021.78 1022.06
1020.06 1020.36 1020.70 1021.05 1021.35 1021.54 1021.58 1021.46 1021.20 1020.84 1020.46 1020.12 1019.86 1019.73 1019.71 1019.77 1019.87 1019.95 1019.97 1019.91 1019.78 1019.62 1019.47 1019.39 1019.40 1019.54 1019.77 1020.06 1020.35 1020.58 1020.71 1020.69 1020.53 1020.27 1019.95 1019.63 1019.38 1019.24 1019.23 1019.37 1019.62 1019.94 1020.30 1020.65 1020.98 1021.28 1021.55 1021.83 1022.12
1020.00 1020.40 1020.84 1021.28 1021.62 1021.82 1021.82 1021.62 1021.27 1020.81 1020.35 1019.94 1019.66 1019.54 1019.55 1019.66 1019.82 1019.95 1020.00 1019.97 1019.84 1019.67 1019.51 1019.42 1019.43 1019.59 1019.85 1020.20 1020.55 1020.86 1021.07 1021.12 1021.03 1020.82 1020.54 1020.24 1019.99 1019.84 1019.80 1019.89 1020.08 1020.33 1020.60 1020.88 1021.13 1021.37 1021.61 1021.88 1022.19
1020.00 1020.53 1021.08 1021.59 1021.96 1022.12 1022.04 1021.74 1021.25 1020.66 1020.08 1019.59 1019.28 1019.15 1019.20 1019.38 1019.61 1019.82 1019.95 1019.97 1019.88 1019.73 1019.58 1019.48 1019.51 1019.67 1019.95 1020.33 1020.73 1021.10 1021.37 1021.49 1021.47 1021.32 1021.09 1020.83 1020.60 1020.45 1020.39 1020.44 1020.56 1020.74 1020.94 1021.15 1021.34 1021.52 1021.73 1021.98 1022.30
1020.10 1020.76 1021.43 1021.99 1022.36 1022.47 1022.28 1021.82 1021.17 1020.43 1019.72 1019.14 1018.78 1018.65 1018.75 1019.00 1019.32 1019.63 1019.85 1019.94 1019.92 1019.82 1019.69 1019.61 1019.64 1019.80 1020.08 1020.47 1020.89 1021.28 1021.59 1021.77 1021.81 1021.73 1021.55 1021.35 1021.16 1021.02 1020.96 1020.98 1021.06 1021.19 1021.33 1021.47 1021.60 1021.74 1021.92 1022.15 1022.48
1020.29 1021.09 1021.85 1022.45 1022.80 1022.82 1022.51 1021.90 1021.08 1020.18 1019.34 1018.67 1018.27 1018.14 1018.27 1018.59 1019.01 1019.42 1019.74 1019.93 1019.99 1019.95 1019.86 1019.80 1019.83 1019.98 1020.24 1020.61 1021.02 1021.42 1021.74 1021.96 1022.05 1022.02 1021.91 1021.77 1021.62 1021.52 1021.48 1021.49 1021.56 1021.65 1021.75 1021.84 1021.94 1022.05 1022.20 1022.41 1022.72
1020.54 1021.45 1022.27 1022.89 1023.20 1023.14 1022.70 1021.95 1020.99 1019.96 1019.01 1018.28 1017.83 1017.71 1017.87 1018.25 1018.75 1019.25 1019.66 1019.95 1020.08 1020.11 1020.06 1020.03 1020.05 1020.18 1020.42 1020.75 1021.13 1021.50 1021.82 1022.05 1022.18 1022.21 1022.16 1022.08 1022.00 1021.95 1021.93 1021.97 1022.03 1022.11 1022.20 1022.28 1022.35 1022.44 1022.57 1022.77 1023.04
1020.78 1021.75 1022.60 1023.21 1023.47 1023.33 1022.79 1021.94 1020.88 1019.77 1018.77 1018.00 1017.54 1017.43 1017.62 1018.04 1018.58 1019.14 1019.62 1019.97 1020.17 1020.25 1020.25 1020.24 1020.27 1020.38 1020.59 1020.87 1021.21 1021.55 1021.86 1022.09 1022.24 1022.31 1022.32 1022.31 1022.29 1022.30 1022.34 1022.40 1022.49 1022.59 1022.67 1022.75 1022.83 1022.92 1023.03 1023.20 1023.44
1020.92 1021.90 1022.73 1023.30 1023.51 1023.31 1022.72 1021.82 1020.73 1019.61 1018.61 1017.85 1017.41 1017.31 1017.51 1017.95 1018.51 1019.08 1019.59 1019.97 1020.21 1020.33 1020.37 1020.39 1020.43 1020.54 1020.72 1020.98 1021.28 1021.59 1021.87 1022.10 1022.27 1022.37 1022.44 1022.49 1022.54 1022.60 1022.69 1022.81 1022.93 1023.05 1023.17 1023.27 1023.36 1023.45 1023.57 1023.72 1023.93
1020.89 1021.82 1022.59 1023.09 1023.24 1023.00 1022.40 1021.52 1020.48 1019.42 1018.49 1017.79 1017.40 1017.33 1017.54 1017.95 1018.48 1019.03 1019.52 1019.90 1020.15 1020.30 1020.37 1020.42 1020.50 1020.62 1020.81 1021.06 1021.34 1021.63 1021.90 1022.13 1022.31 1022.45 1022.56 1022.66 1022.76 1022.88 1023.02 1023.18 1023.34 1023.50 1023.65 1023.78 1023.90 1024.02 1024.15 1024.29 1024.47
1020.68 1021.50 1022.17 1022.58 1022.67 1022.41 1021.84 1021.03 1020.10 1019.17 1018.36 1017.77 1017.45 1017.41 1017.61 1017.98 1018.45 1018.93 1019.37 1019.71 1019.95 1020.11 1020.23 1020.33 1020.45 1020.62 1020.85 1021.11 1021.40 1021.69 1021.96 1022.19 1022.39 1022.55 1022.70 1022.84 1022.99 1023.15 1023.33 1023.52 1023.72 1023.91 1024.09 1024.25 1024.41 1024.56 1024.71 1024.86 1025.02
Thickness
5788 5788 5786 5774 5754 5739 5736 5748 5758 5761 5762 5769 5774 5769 5760 5753 5748 5742 5759 5767 5768 5768 5768 5768 5769 5769 5769 5768 5768 5769 5769 5768 5768 5767 5766 5765 5763 5762 5761 5761 5760 5759 5759 5758 5758 5758 5758 5758 5758
5788 5786 5776 5761 5740 5725 5733 5749 5754 5762 5767 5773 5772 5767 5759 5754 5760 5759 5761 5765 5767 5767 5766 5767 5767 5767 5767 5767 5766 5766 5766 5766 5765 5764 5763 5763 5761 5760 5759 5759 5758 5757 5756 5756 5756 5756 5756 5755 5756
5787 5783 5764 5747 5735 5728 5736 5750 5757 5766 5774 5773 5764 5763 5758 5753 5759 5760 5764 5766 5765 5765 5765 5765 5765 5765 5765 5765 5764 5764 5764 5763 5762 5762 5761 5760 5759 5758 5757 5757 5756 5755 5754 5754 5754 5753 5753 5753 5753
5780 5768 5757 5740 5733 5742 5748 5754 5761 5763 5767 5770 5763 5754 5757 5763 5763 5764 5766 5765 5764 5763 5763 5763 5763 5763 5763 5763 5762 5762 5761 5761 5760 5760 5759 5758 5757 5756 5755 5755 5754 5753 5752 5752 5751 5751 5751 5750 5750
5773 5756 5741 5731 5736 5746 5754 5761 5763 5759 5759 5761 5759 5748 5748 5761 5766 5765 5764 5764 5762 5761 5761 5761 5761 5761 5761 5760 5759 5759 5759 5758 5758 5757 5756 5755 5754 5754 5753 5753 5752 5751 5751 5750 5749 5749 5748 5748 5747
5757 5747 5728 5722 5734 5745 5753 5760 5761 5756 5755 5757 5754 5746 5745 5759 5761 5761 5762 5761 5761 5759 5759 5758 5758 5758 5758 5758 5757 5757 5756 5756 5755 5754 5753 5753 5752 5752 5751 5751 5750 5749 5749 5748 5747 5746 5746 5745 5744
5750 5738 5727 5728 5731 5739 5751 5760 5756 5752 5751 5755 5757 5743 5744 5753 5759 5761 5760 5759 5758 5757 5756 5756 5756 5756 5756 5755 5755 5754 5754 5753 5752 5751 5750 5750 5750 5749 5749 5749 5748 5748 5747 5746 5745 5744 5744 5743 5742
5756 5738 5729 5727 5730 5736 5753 5759 5758 5755 5752 5761 5759 5743 5741 5752 5759 5759 5757 5756 5755 5754 5753 5753 5753 5753 5753 5753 5753 5752 5751 5751 5750 5749 5748 5748 5748 5747 5747 5746 5746 5745 5744 5744 5743 5743 5742 5741 5740
5758 5730 5720 5729 5732 5738 5753 5753 5755 5760 5756 5756 5757 5754 5755 5758 5757 5753 5750 5749 5750 5750 5751 5751 5751 5751 5751 5751 5751 5750 5749 5748 5748 5746 5746 5745 5745 5745 5744 5744 5744 5743 5742 5742 5741 5740 5739 5738 5737
5745 5723 5730 5742 5745 5745 5750 5750 5751 5749 5745 5744 5748 5752 5756 5754 5752 5747 5745 5744 5745 5746 5748 5750 5750 5749 5749 5749 5748 5747 5747 5746 5745 5744 5743 5743 5742 5742 5742 5742 5741 5741 5740 5740 5739 5738 5737 5735 5734
5744 5732 5741 5747 5752 5752 5749 5749 5752 5743 5735 5740 5742 5745 5749 5748 5747 5746 5745 5745 5746 5747 5748 5749 5749 5748 5747 5747 5746 5745 5745 5744 5743 5742 5741 5740 5739 5739 5739 5739 5739 5738 5738 5737 5736 5735 5734 5732 5730
5742 5742 5747 5748 5754 5751 5748 5747 5744 5743 5741 5749 5749 5749 5747 5745 5744 5744 5743 5744 5746 5746 5747 5748 5748 5747 5745 5745 5744 5743 5742 5741 5741 5740 5739 5738 5737 5736 5736 5736 5735 5735 5734 5733 5732 5731 5731 5729 5727
5738 5740 5747 5750 5751 5750 5748 5743 5740 5740 5746 5749 5748 5746 5744 5743 5743 5744 5745 5745 5745 5744 5745 5746 5747 5745 5744 5743 5742 5741 5740 5739 5739 5738 5737 5736 5735 5734 5733 5733 5732 5732 5731 5730 5729 5727 5726 5724 5723
5740 5741 5742 5745 5746 5746 5740 5738 5738 5737 5744 5744 5743 5741 5743 5742 5742 5742 5742 5742 5742 5743 5743 5745 5745 5744 5742 5741 5739 5738 5738 5737 5736 5736 5735 5735 5733 5732 5731 5730 5729 5728 5728 5727 5725 5724 5722 5720 5718
5743 5734 5733 5738 5741 5741 5737 5726 5731 5739 5742 5738 5738 5739 5739 5741 5742 5741 5742 5742 5742 5742 5743 5743 5743 5742 5740 5739 5737 5736 5735 5735 5734 5733 5733 5732 5731 5730 5729 5727 5726 5725 5724 5723 5722 5720 5718 5716 5714
5733 5722 5714 5729 5738 5739 5728 5710 5728 5738 5736 5732 5733 5735 5736 5738 5740 5741 5742 5741 5741 5740 5740 5741 5741 5739 5737 5736 5735 5734 5732 5732 5731 5730 5730 5729 5728 5727 5726 5724 5723 5722 5721 5720 5718 5716 5713 5711 5709
5715 5706 5708 5720 5734 5735 5724 5713 5727 5736 5734 5729 5730 5731 5733 5734 5736 5739 5740 5740 5739 5739 5738 5737 5737 5735 5734 5733 5732 5730 5729 5728 5728 5727 5726 5725 5725 5724 5723 5722 5721 5720 5718 5716 5715 5712 5710 5707 5705
5703 5706 5710 5713 5727 5728 5719 5716 5726 5732 5732 5729 5728 5728 5730 5731 5734 5738 5739 5739 5738 5737 5736 5735 5734 5732 5731 5730 5728 5726 5725 5724 5724 5723 5723 5723 5722 5721 5721 5719 5718 5717 5715 5713 5711 5709 5707 5705 5703
5717 5712 5709 5716 5729 5723 5716 5716 5722 5729 5728 5726 5725 5726 5728 5730 5735 5737 5737 5737 5735 5734 5732 5731 5730 5729 5728 5725 5722 5719 5718 5719 5719 5720 5720 5720 5719 5718 5718 5716 5715 5714 5711 5709 5708 5706 5703 5701 5700
5717 5708 5708 5716 5727 5721 5713 5714 5723 5727 5728 5728 5727 5727 5728 5728 5730 5732 5733 5733 5732 5730 5729 5728 5727 5726 5726 5724 5722 5720 5717 5716 5716 5716 5716 5716 5716 5716 5715 5713 5712 5710 5708 5706 5705 5704 5699 5698 5698
5713 5708 5709 5710 5717 5719 5711 5705 5713 5723 5728 5729 5730 5730 5730 5729 5729 5729 5729 5729 5729 5728 5727 5727 5726 5725 5724 5722 5719 5717 5714 5712 5711 5711 5712 5713 5713 5712 5712 5711 5709 5707 5706 5703 5703 5702 5699 5695 5695
5705 5720 5719 5714 5702 5693 5702 5683 5703 5715 5718 5723 5726 5727 5728 5730 5730 5729 5728 5727 5727 5727 5727 5726 5724 5723 5721 5720 5717 5713 5709 5706 5707 5708 5709 5709 5710 5709 5709 5708 5707 5705 5703 5702 5701 5700 5698 5696 5692
5715 5726 5720 5713 5701 5692 5696 5686 5694 5711 5710 5718 5724 5727 5729 5730 5730 5728 5728 5727 5727 5727 5725 5724 5722 5720 5719 5718 5715 5712 5708 5707 5707 5706 5706 5706 5706 5706 5706 5705 5704 5702 5701 5700 5699 5698 5696 5695 5692
5724 5716 5710 5701 5690 5678 5692 5686 5689 5703 5715 5722 5727 5729 5730 5730 5730 5729 5728 5726 5724 5724 5722 5720 5718 5717 5716 5715 5712 5710 5707 5705 5703 5702 5701 5701 5701 5702 5702 5701 5701 5699 5698 5697 5696 5695 5694 5692 5691
5711 5689 5672 5670 5665 5673 5695 5689 5695 5719 5729 5731 5730 5730 5731 5729 5727 5725 5723 5721 5720 5719 5718 5717 5715 5713 5713 5711 5709 5708 5706 5704 5702 5701 5699 5698 5697 5697 5698 5698 5697 5696 5695 5694 5693 5692 5690 5689 5687
5701 5690 5668 5659 5661 5671 5689 5686 5704 5730 5735 5736 5735 5732 5730 5727 5726 5725 5723 5721 5719 5718 5716 5714 5712 5710 5709 5708 5706 5705 5704 5702 5701 5700 5699 5697 5696 5696 5696 5695 5694 5694 5693 5691 5690 5688 5687 5686 5684
5697 5689 5691 5675 5674 5668 5676 5693 5711 5726 5727 5729 5729 5728 5726 5726 5725 5724 5722 5720 5718 5716 5714 5713 5710 5708 5707 5705 5704 5702 5702 5701 5699 5698 5697 5696 5695 5695 5693 5693 5692 5690 5689 5688 5687 5684 5683 5682 5680
5706 5697 5680 5671 5661 5657 5670 5680 5688 5707 5713 5720 5722 5722 5723 5725 5724 5722 5721 5719 5717 5715 5713 5711 5709 5707 5705 5703 5701 5701 5699 5699 5698 5696 5694 5693 5693 5692 5691 5689 5688 5687 5685 5684 5683 5681 5679 5678 5676
5694 5690 5681 5670 5667 5656 5655 5672 5708 5710 5715 5715 5719 5722 5722 5722 5722 5721 5719 5718 5716 5713 5711 5708 5707 5704 5702 5700 5699 5698 5696 5696 5694 5693 5692 5691 5690 5689 5688 5686 5685 5683 5682 5680 5679 5677 5675 5673 5672
5697 5691 5679 5663 5662 5662 5658 5673 5717 5716 5718 5718 5718 5721 5722 5721 5721 5720 5717 5714 5712 5710 5708 5706 5704 5702 5700 5699 5697 5694 5693 5692 5690 5689 5688 5688 5687 5686 5685 5683 5681 5680 5678 5677 5675 5673 5671 5669 5667